Regional Weather Roundup
Issued by NWS

Home | Current Version | Previous Version | Text Only | Print | Product List | Glossary Off
Versions: 1 2 3 4 5 6 7 8 9 10 11 12 13 14 15 16 17 18 19 20 21 22 23 24 25 26 27 28 29 30 31 32 33 34 35 36 37 38 39 40 41 42 43 44 45 46 47 48 49 50

369
ASUS44 KLIX 252110
RWRLA
LOUISIANA WEATHER ROUNDUP
NATIONAL WEATHER SERVICE NEW ORLEANS LA
400 PM CDT SAT OCT 25 2014

NOTE: "FAIR" INDICATES FEW OR NO CLOUDS BELOW 12,000 FEET WITH NO
      SIGNIFICANT WEATHER AND/OR OBSTRUCTIONS TO VISIBILITY.
      SKY/WX - SKY CONDITION AND SIGNIFICANT WEATHER.
      TMP - AIR TEMPERATURE.    DP   - DEWPOINT TEMPERATURE.
      RH  - RELATIVE HUMIDITY.  PRES - PRESSURE.
      HX  - HEAT INDEX.         WCI  - WIND CHILL INDEX.

*  THESE STATIONS ARE NOT NWS OR FAA STATIONS AND ARE NOT UNDER
   NWS QUALITY CONTROL.

LAZ040-048-061>063-065-066-069-252200-
SOUTHEAST LOUISIANA

CITY           SKY/WX    TMP DP  RH WIND       PRES   REMARKS
N.O. AUDUBON     N/A     78  57  47 MISG        N/A
N.O. INTL ARPT SUNNY     78  54  43 VRB6      30.08F
N.O. LAKEFRONT SUNNY     74  57  55 W9        30.08F
N.O. DOWNTOWN* FAIR      79  52  38 NW6       30.08F
SLIDELL        SUNNY     82  54  37 N3        30.06F
BATON ROUGE    SUNNY     81  54  39 W9        30.08F
BOOTHVILLE     SUNNY     73  54  51 N6        30.08F
BELLE CHASSE   SUNNY     79  50  36 VRB3      30.07F
BOGALUSA*        N/A     83  54  37 N9        30.07F
NEW ROADS*     FAIR      80  49  34 NW3       30.09F
GONZALES*      FAIR      81  51  36 N5        30.07F
HAMMOND*       SUNNY     82  50  32 N7        30.08F
HOUMA*         SUNNY     81  54  39 N7        30.08F
PORT FOURCHON* CLEAR     75  55  50 NE7       30.11F

$$

LAZ041-044-053-054-252200-
SOUTHWEST LOUISIANA

CITY           SKY/WX    TMP DP  RH WIND       PRES   REMARKS
LAKE CHARLES   SUNNY     82  48  30 S3        30.10F
LAFAYETTE      SUNNY     83  48  29 VRB3      30.09F
PATTERSON      SUNNY     81  54  39 N5        30.12S
SALT POINT       N/A     74  61  63 VRB3      30.09S
NEW IBERIA     SUNNY     84  49  29 N6        30.10F
CHENAULT AIRPK NOT AVBL

$$

LAZ027-028-252200-
CENTRAL LOUISIANA

CITY           SKY/WX    TMP DP  RH WIND       PRES   REMARKS
FORT POLK      SUNNY     83  49  31 VRB3      30.10S
ALEXANDRIA INT SUNNY     82  51  34 VRB5      30.07F
ALEXANDRIA     SUNNY     80  52  37 CALM      30.09F

$$

LAZ001-002-252200-
NORTHWEST LOUISIANA

CITY           SKY/WX    TMP DP  RH WIND       PRES   REMARKS
SHREVEPORT     SUNNY     84  62  47 SW5       30.07F
BARKSDALE AFB  SUNNY     85  61  43 W7        30.07F
DTN SHREVEPORT SUNNY     83  61  47 SW8       30.07F

$$

LAZ014-016-252200-
NORTHEAST LOUISIANA

CITY           SKY/WX    TMP DP  RH WIND       PRES   REMARKS
MONROE         SUNNY     82  59  45 W7        30.07F
TALLULAH       SUNNY     81  60  48 VRB5      30.06F

$$




USA.gov is the U.S. government's official web portal to all federal, state and local government web resources and services.